GEFSMA_500_meanwind_150.txt.gz
Wind_Speed
5 5 4 3 2 2 1 0 1 1 2 2 1 1 1 1 1 1 1 0 1 1 2 3 3 3 3 3 3 3 3 3 3 3 3 4 4 4 4 4 4 4 5
7 6 5 4 3 3 2 2 1 1 1 2 1 0 0 0 1 1 1 0 1 1 1 2 3 3 3 3 3 3 3 3 3 3 2 3 4 4 4 4 4 5 5
8 7 6 5 4 4 3 3 3 1 1 1 1 0 0 0 0 0 0 1 1 1 1 1 2 3 3 3 3 3 3 3 3 3 3 3 3 4 4 5 5 6 6
10 9 8 7 6 5 5 5 4 3 1 1 0 0 1 1 1 1 1 1 1 1 1 1 2 3 3 4 4 3 3 3 3 3 3 3 4 4 4 5 6 7 7
12 11 10 9 8 7 6 6 5 4 2 2 1 1 1 1 1 1 1 1 2 2 2 2 2 3 3 4 4 4 3 3 4 4 4 4 4 4 5 5 6 6 7
13 13 12 11 10 9 8 7 6 5 4 4 3 3 3 2 2 1 1 1 2 2 2 3 3 3 3 3 3 3 3 3 3 4 4 4 5 5 5 6 6 6 7
14 13 13 12 11 10 10 9 8 7 6 5 5 4 3 3 2 2 2 2 2 3 3 4 4 4 4 4 4 4 4 4 4 5 5 5 6 6 6 6 6 6 7
15 14 14 13 12 11 11 10 9 9 8 7 6 6 5 5 4 3 3 3 3 3 3 3 4 4 5 5 5 4 4 4 5 5 6 6 7 7 7 7 7 7 7
16 15 15 14 13 13 12 12 12 11 9 9 8 7 7 6 6 5 4 4 4 4 3 3 4 5 6 6 5 5 6 6 6 6 6 7 8 8 9 9 8 8 9
17 16 16 15 15 15 15 14 13 12 11 10 9 8 8 8 7 7 7 6 6 6 5 5 5 5 6 6 7 6 7 7 7 7 8 8 8 9 9 9 10 11 11
19 18 17 16 16 17 16 15 15 14 13 12 10 10 10 10 10 9 9 9 8 8 8 8 8 8 8 9 9 9 9 9 9 10 10 10 10 11 11 12 12 13 13
20 19 18 17 17 17 18 17 16 15 14 14 13 12 12 12 12 12 11 11 11 11 10 10 11 11 11 11 11 12 12 12 12 12 12 13 13 13 14 14 15 15 15
21 21 20 19 18 18 19 19 18 17 16 16 15 14 14 13 13 14 14 13 13 13 13 13 13 14 14 14 14 15 15 16 16 16 16 16 16 17 17 18 18 19 19
21 21 21 20 20 20 20 21 20 19 19 18 17 17 16 16 15 15 16 16 16 16 16 16 16 16 17 17 18 18 19 19 19 19 19 19 20 20 21 21 22 23 23
22 22 22 21 21 21 21 22 22 21 21 20 20 19 19 18 17 17 18 18 18 18 18 19 19 20 20 21 22 22 22 22 23 23 23 24 24 24 24 25 26 26 27
22 23 22 23 23 23 23 23 23 23 23 22 21 20 20 20 19 19 19 19 20 20 20 21 22 23 23 24 24 25 25 26 26 27 27 28 28 28 28 29 29 30 31
22 23 23 23 24 24 24 25 25 25 25 24 23 23 22 22 22 21 21 21 22 22 22 23 24 24 25 26 27 28 28 28 29 30 30 31 31 32 33 33 33 34 34
20 22 23 24 25 25 25 25 26 26 25 25 25 25 25 25 24 24 24 24 24 24 24 25 26 26 26 27 28 28 28 29 30 31 32 33 34 35 36 36 36 37 38
20 21 23 23 24 25 25 25 25 26 27 27 27 27 27 26 26 26 26 26 27 27 27 28 28 29 29 29 29 30 30 31 32 34 35 36 36 37 38 38 39 40 41
19 21 22 23 23 24 25 26 26 26 27 28 27 28 28 28 28 29 28 29 29 30 30 30 30 31 32 32 32 33 34 34 35 36 37 38 39 40 40 41 42 42 43
18 18 20 21 23 23 24 25 26 26 28 28 28 28 28 29 29 30 31 32 32 32 32 32 32 33 34 35 36 36 36 37 38 39 39 40 42 43 43 44 45 46 46
16 17 19 19 21 22 23 24 25 26 27 28 28 29 30 31 31 32 32 32 33 34 34 34 35 36 37 38 39 39 39 39 40 41 42 43 44 45 46 47 48 48 49
16 17 18 20 20 21 23 24 25 26 27 27 29 30 31 31 32 33 33 34 35 36 37 38 38 39 40 40 41 40 41 42 43 44 45 45 46 48 49 50 50 51 51
17 18 19 21 22 22 23 24 25 26 28 29 30 30 31 31 32 33 35 35 36 37 38 39 40 41 41 41 42 43 43 44 45 46 48 48 49 50 51 52 52 53 54
18 18 20 22 22 22 24 25 26 28 29 30 30 31 31 31 33 33 34 36 38 39 40 41 42 43 44 44 45 46 46 47 47 48 49 50 51 52 52 53 55 56 56
18 19 20 21 22 22 23 24 26 27 28 29 30 30 31 32 33 35 36 37 37 39 40 42 43 44 44 45 47 48 49 49 50 51 52 54 55 56 55 55 56 57 58

GEFSMA_500_meanwind_156.txt.gz
Wind_Speed
6 5 4 4 3 3 3 2 2 2 1 1 2 1 1 1 1 1 1 1 1 2 2 3 3 3 2 2 2 2 2 2 2 2 2 3 3 3 3 3 3 3 3
8 6 5 4 4 4 4 3 2 2 1 1 1 1 1 1 1 1 0 0 0 1 2 3 3 3 3 3 3 2 2 2 2 2 3 3 3 3 3 3 3 3 3
10 8 6 6 5 5 5 4 3 2 1 1 1 2 1 2 1 1 1 0 0 1 1 2 2 3 4 3 3 3 3 3 3 3 3 3 3 3 3 4 4 4 4
11 10 8 7 7 6 5 5 4 3 2 1 1 2 1 2 2 1 1 1 0 1 1 1 2 3 3 3 4 4 4 4 4 3 3 3 3 3 3 4 4 5 6
13 12 10 9 8 7 6 6 5 4 4 3 2 2 2 2 2 2 1 1 1 1 1 2 2 3 3 3 4 4 4 4 4 4 4 4 4 4 5 5 5 6 6
14 14 12 11 9 8 8 7 6 6 5 5 4 3 3 2 2 2 2 1 1 2 2 3 3 3 3 4 4 4 4 4 4 4 5 5 5 6 6 6 6 7 7
16 15 14 13 11 10 9 8 7 7 6 6 5 5 4 3 3 3 2 2 2 3 3 4 4 4 4 4 4 4 4 4 4 5 5 6 6 7 6 6 7 7 7
16 16 15 14 13 12 10 10 9 8 8 7 7 6 6 5 4 4 4 4 4 4 4 4 5 5 5 5 5 5 5 5 6 6 7 7 8 8 8 8 8 9 8
17 17 17 15 14 13 13 12 11 11 10 9 8 8 7 7 6 6 6 5 5 6 5 5 5 5 6 6 6 7 7 7 7 7 7 7 8 8 9 9 9 9 9
19 18 17 16 15 15 14 13 13 12 11 11 10 9 9 9 8 7 7 7 7 7 7 7 7 6 6 7 7 7 8 8 8 8 8 9 9 9 10 11 11 11 11
20 20 19 18 16 15 14 14 14 14 13 12 12 12 11 11 10 10 10 10 9 9 9 9 9 9 9 9 9 9 9 10 10 10 10 11 11 11 12 13 13 13 14
21 21 21 20 18 17 15 15 16 15 15 14 14 14 13 13 13 12 12 12 12 11 11 11 11 12 12 12 11 11 12 12 13 13 13 14 14 14 15 15 16 16 16
21 21 22 21 20 19 17 17 17 17 16 16 16 16 15 15 14 14 14 14 14 14 14 14 14 14 14 14 14 15 15 15 16 16 17 17 17 18 18 19 19 19 20
20 21 22 22 22 21 19 19 18 18 18 18 18 18 17 17 16 16 16 16 16 16 16 16 17 17 17 18 18 18 18 19 19 20 20 20 21 22 22 22 22 23 23
20 21 22 22 22 21 21 21 20 20 20 20 20 20 20 19 19 19 19 19 19 18 19 18 18 19 20 20 20 20 21 22 22 23 23 24 24 25 25 25 25 26 27
20 21 22 23 22 22 22 22 22 21 21 22 22 22 22 22 21 21 22 21 21 21 22 21 21 21 21 21 22 22 23 24 25 26 27 27 27 28 29 29 29 29 29
19 21 22 23 23 23 23 23 23 23 23 23 24 24 24 24 23 23 23 23 23 23 23 24 23 23 23 24 25 26 26 27 27 28 29 29 30 31 31 31 32 32 33
19 20 21 22 23 24 24 24 24 25 24 24 25 25 26 26 26 26 26 26 26 26 25 26 26 26 27 27 28 29 29 29 30 30 31 32 33 33 33 34 34 35 36
19 20 20 20 22 23 24 24 24 25 24 25 26 26 27 27 28 28 28 28 29 28 28 28 29 30 31 31 32 32 33 33 34 34 35 35 35 35 35 36 36 37 38
19 19 19 20 21 23 23 24 25 25 25 26 27 28 28 28 29 29 30 30 30 31 31 32 32 33 33 34 34 34 34 34 35 36 37 37 37 38 38 38 39 39 40
18 18 19 20 21 22 22 23 25 25 25 26 27 28 29 30 31 30 30 31 31 31 32 33 33 34 35 35 35 36 37 37 37 38 39 40 40 40 41 42 43 43 44
15 17 18 19 20 21 21 22 24 25 25 26 27 28 28 29 29 31 32 32 32 32 33 33 34 34 35 35 36 37 38 39 40 40 41 41 42 42 43 44 44 45 46
15 16 18 19 19 19 19 21 22 23 24 26 27 27 27 28 30 31 32 32 32 33 34 34 35 35 37 38 38 39 40 41 41 42 42 43 44 45 46 47 47 47 48
17 17 17 17 18 19 20 21 22 22 22 23 24 26 27 28 30 30 30 31 32 33 34 35 36 37 39 39 40 41 41 42 43 43 45 46 47 48 49 50 50 50 52
18 18 19 19 19 19 20 21 21 22 22 23 24 25 27 28 30 31 31 32 33 34 35 36 37 38 39 40 42 42 42 43 45 46 47 48 49 51 52 53 54 54 55
19 20 20 20 20 21 22 22 23 23 23 24 25 26 27 29 30 30 32 33 34 35 36 37 38 39 40 41 42 43 44 45 47 48 49 50 51 52 53 53 54 54 55

GEFSMA_500_meanwind_162.txt.gz
Wind_Speed
4 4 3 2 2 2 2 1 1 1 1 1 1 1 1 1 1 1 2 2 2 1 1 1 1 1 1 2 2 2 2 2 2 2 1 1 1 1 0 0 0 1 1
6 5 4 3 3 3 3 2 2 2 2 1 1 1 1 1 2 2 2 2 2 1 0 0 0 0 1 1 1 1 1 1 1 1 1 1 1 1 1 0 1 1 2
7 6 5 5 5 4 4 3 3 2 2 2 1 1 1 1 1 1 1 2 2 2 1 1 0 0 0 0 1 1 1 1 1 1 1 1 1 1 1 1 1 2 2
8 8 7 7 6 5 5 5 4 3 3 2 2 1 1 1 1 1 1 1 2 2 2 1 1 1 1 1 1 1 1 1 1 2 2 2 2 2 2 2 2 2 2
10 9 9 9 8 7 6 6 5 4 4 3 3 2 1 1 1 1 0 1 1 1 1 1 1 1 1 1 1 1 1 2 2 2 2 2 2 2 2 3 3 3 3
12 11 10 10 10 8 8 7 6 5 5 4 4 4 3 2 2 1 1 0 0 1 1 1 2 2 2 2 2 2 2 3 3 2 2 3 3 3 3 3 4 4 4
13 13 12 12 10 9 9 8 7 6 6 5 5 5 4 3 3 2 2 1 1 1 2 2 2 3 3 3 3 3 3 3 3 3 3 4 4 4 4 4 5 5 5
14 14 14 13 12 10 10 9 9 8 8 7 6 6 6 5 4 3 3 3 3 3 3 3 3 3 3 3 3 3 3 3 3 4 4 4 5 5 6 6 6 6 6
15 14 15 15 14 13 12 11 11 10 10 9 8 8 8 7 6 5 4 4 4 4 5 5 4 4 4 4 4 5 5 5 5 5 5 5 6 6 7 7 8 8 8
16 16 16 16 15 15 14 14 13 13 12 11 10 10 10 9 8 7 6 6 6 7 7 6 6 5 5 6 6 6 6 6 6 6 7 7 7 8 9 9 10 10 10
16 16 16 16 17 17 16 16 16 15 14 13 12 12 11 11 10 10 9 8 9 9 9 8 8 8 8 8 8 9 9 9 9 9 10 10 10 11 11 12 12 13 13
16 16 16 17 17 17 17 17 17 16 15 15 14 13 13 13 12 12 12 11 11 11 11 10 10 10 10 11 11 11 12 12 12 13 13 14 14 14 15 15 16 16 16
16 16 16 17 17 18 18 18 18 17 17 16 16 15 15 15 15 15 14 13 13 13 13 13 13 13 13 13 14 14 15 15 16 16 17 17 17 18 18 18 18 19 20
16 16 17 17 18 19 19 19 18 18 17 17 17 18 17 17 17 17 17 16 15 15 15 15 16 16 16 16 17 17 18 19 19 19 20 20 21 21 21 21 22 22 23
15 16 17 18 18 19 19 19 19 19 19 19 19 19 19 19 19 19 19 19 19 18 18 19 19 19 19 19 19 20 20 21 22 22 23 23 23 24 24 25 25 26 27
16 17 18 19 20 20 20 20 20 20 21 20 20 20 20 21 21 21 21 21 21 21 21 22 21 21 21 21 21 22 22 23 24 25 26 26 26 27 28 28 29 30 31
15 17 18 19 19 20 21 22 22 21 21 21 22 22 22 23 23 22 22 23 23 23 24 24 24 24 24 24 24 24 25 25 26 27 28 28 29 30 31 31 32 33 33
16 16 17 18 19 20 21 22 22 22 22 22 23 23 23 23 24 24 24 24 25 25 25 25 26 26 26 27 27 27 27 28 29 30 31 31 32 33 33 34 34 34 34
16 17 18 18 19 19 20 21 22 23 23 23 23 24 24 24 25 25 25 26 27 27 27 28 29 29 28 28 29 29 29 30 31 31 31 32 32 33 34 34 34 35 36
16 17 17 18 19 19 21 22 22 22 23 23 24 24 25 25 25 25 26 27 28 28 29 29 29 29 29 30 30 30 31 31 32 33 33 33 34 35 35 35 35 37 38
15 15 17 17 18 19 20 21 22 22 23 23 24 24 24 25 25 26 26 27 28 28 29 29 29 30 30 30 30 31 32 33 34 35 35 34 36 36 36 36 37 38 39
16 16 17 18 18 18 19 21 21 21 22 23 23 24 24 26 25 25 25 26 28 28 28 28 29 30 30 31 32 32 33 34 35 36 37 37 39 39 39 39 38 40 42
16 17 18 18 18 18 19 20 21 22 23 24 25 25 25 25 25 26 26 26 27 27 28 29 30 31 32 32 33 34 35 36 37 38 39 39 39 40 40 40 41 42 43
17 17 17 18 18 18 19 19 20 21 21 22 24 25 25 26 26 25 25 26 27 28 28 30 31 32 33 34 35 35 36 36 37 38 39 40 40 41 42 42 43 44 46
17 18 18 18 18 19 18 19 20 20 21 21 22 23 23 23 23 23 25 26 27 28 29 31 32 33 34 34 35 36 37 39 40 40 41 42 43 43 44 45 46 47 47
19 19 19 18 19 19 20 21 21 21 22 23 23 23 23 22 23 24 25 27 28 29 30 31 32 33 33 35 36 37 39 41 42 43 44 44 45 45 45 46 47 47 46

GEFSMA_500_meanwind_168.txt.gz
Wind_Speed
1 1 1 1 2 2 2 2 2 1 1 1 2 2 2 2 2 2 2 2 2 3 3 3 3 3 4 3 3 3 3 3 3 3 3 2 2 2 2 2 2 2 2
2 2 1 1 2 2 2 2 2 2 2 1 1 1 2 2 1 2 2 2 2 2 2 2 2 3 3 3 3 3 3 3 3 2 2 2 2 3 3 2 3 3 3
3 3 2 2 2 2 2 2 2 3 2 2 1 0 0 1 1 1 1 2 2 2 2 2 2 3 3 3 2 2 2 3 3 3 3 3 2 3 3 3 3 4 4
5 5 4 3 3 3 2 2 2 3 2 1 1 1 1 0 1 0 0 1 2 2 2 2 2 2 3 3 3 2 2 3 3 4 4 4 3 3 3 4 4 4 4
7 7 6 5 4 3 3 3 3 3 2 2 2 2 2 2 2 1 1 1 2 2 2 2 2 2 3 3 3 3 3 4 4 5 5 5 5 5 4 4 5 5 5
9 8 7 6 6 5 4 4 4 4 3 3 3 3 3 4 3 3 3 3 3 3 3 3 3 3 3 4 4 5 5 5 5 6 6 6 6 5 5 5 6 6 6
9 10 10 9 8 7 7 6 6 5 5 4 5 5 5 5 5 4 4 3 3 3 3 3 4 4 4 4 5 5 6 6 6 6 6 6 6 6 6 6 7 7 7
11 11 10 11 10 10 9 9 8 7 7 6 6 6 6 6 6 6 5 5 5 5 5 5 5 5 5 5 6 6 6 6 7 7 7 7 7 7 7 7 7 8 8
11 11 12 12 12 11 11 10 10 9 8 8 7 8 8 8 8 8 7 7 7 7 7 6 7 7 7 7 7 7 6 6 7 7 8 8 8 8 8 8 9 10 10
12 12 13 13 14 13 13 12 12 12 10 10 10 9 9 10 10 9 9 9 9 8 9 9 9 9 9 9 9 9 8 8 8 9 9 10 10 10 10 11 11 12 12
12 13 14 14 14 14 14 14 14 13 12 12 12 12 12 12 12 11 11 11 11 10 11 11 11 11 11 12 11 11 11 11 11 12 12 12 12 13 13 14 14 14 14
12 13 14 14 14 15 15 14 14 14 14 14 14 14 13 13 13 13 13 14 14 13 13 13 13 13 14 14 14 14 14 14 14 15 15 15 15 15 16 16 17 17 18
13 14 15 14 14 15 15 14 14 14 15 15 16 15 15 15 15 15 15 15 16 16 16 15 15 15 16 16 16 16 16 17 17 18 18 19 19 19 19 20 20 21 21
13 13 15 15 15 15 15 15 15 16 16 16 17 16 17 17 16 16 16 17 17 18 18 18 17 17 18 18 19 19 19 20 20 21 21 21 21 22 22 22 23 24 24
14 13 14 15 15 16 16 17 17 18 18 18 18 18 18 18 18 18 18 19 19 20 19 20 20 20 20 20 21 22 22 22 23 23 24 24 25 25 25 25 26 27 28
13 14 14 15 15 16 17 18 18 19 19 19 19 19 20 20 20 20 20 20 20 20 21 22 22 22 22 22 23 24 24 24 25 25 25 26 27 28 28 29 29 30 31
14 14 14 14 15 16 17 18 19 20 20 20 20 21 21 21 21 21 22 22 22 22 22 23 24 24 25 24 24 25 26 27 27 28 28 29 29 29 30 31 31 32 32
14 14 14 15 15 15 16 18 19 20 21 21 22 22 23 23 23 24 24 24 23 23 23 24 25 25 26 27 27 27 28 28 29 29 29 30 30 31 31 32 33 34 34
14 14 15 15 16 16 17 18 19 20 21 22 23 23 23 24 24 24 25 26 26 25 25 26 27 28 28 28 29 29 29 29 29 29 29 30 30 31 31 32 33 34 34
14 15 15 15 15 16 17 18 19 20 21 22 22 23 24 25 25 26 26 26 26 26 26 26 27 28 28 29 28 28 28 29 29 29 30 31 32 32 33 34 35 36 36
14 15 15 15 15 15 17 17 18 19 21 21 22 24 25 25 26 26 26 26 26 27 27 27 27 28 29 29 29 29 30 31 31 32 33 33 33 34 36 36 37 38 39
14 14 14 14 15 15 16 17 17 18 20 20 21 23 23 24 25 26 26 26 26 26 27 28 28 29 29 29 29 30 32 33 33 34 35 36 37 37 37 38 39 39 41
14 14 14 14 15 17 17 18 18 19 20 20 21 21 22 23 23 24 26 26 26 27 28 28 28 29 30 30 30 31 32 34 35 36 37 38 38 39 40 41 42 43 43
15 15 15 15 16 17 17 18 19 19 20 20 19 20 21 23 23 24 24 25 26 27 28 27 27 28 29 30 31 32 34 35 36 36 37 38 39 40 42 43 44 45 45
15 15 15 16 17 17 17 17 18 18 19 19 19 20 21 22 21 22 23 24 25 25 25 26 28 29 30 32 33 34 35 37 38 39 41 41 41 42 44 44 45 47 47
15 16 16 17 17 17 18 18 19 19 20 20 21 21 21 20 20 21 22 23 23 24 25 27 29 30 32 33 33 35 37 38 39 40 41 42 43 44 45 46 47 47 48